Station MROS1 - 8661070 - Springmaid Pier, SC Image indicating link to RSS feed of recent meteorological observations for station MROS1


Conditions at MROS1 as of
(6:48 pm EDT)
2248 GMT on 09/01/2026:
     

Click on the graph icon in the table below to see a time series plot of the last five days of that observation.

5-day plot - Wind Direction Wind Direction (WDIR):SSE ( 160 deg true )
5-day plot - Wind Speed Wind Speed (WSPD): 8.0 kts
5-day plot - Wind Gust Wind Gust (GST): 8.9 kts
5-day plot - Atmospheric Pressure Atmospheric Pressure (PRES):30.09 in
5-day plot - Air Temperature Air Temperature (ATMP): 82.9 °F
5-day plot - Water Temperature Water Temperature (WTMP): 86.7 °F
5-day plot - Wind Speed at 10 Meters Wind Speed at 10 meters (WSPD10M): 7.8 kts
5-day plot - Wind Speed at 20 Meters Wind Speed at 20 meters (WSPD20M): 9.7 kts
5-day plot -  Wind Speed, Wind Gust and Atmospheric Pressure Combined plot of Wind Speed, Gust, and Air Pressure
NOS Water Level Observation Network Water Level
Previous observations
TIME
(EDT)
5-day plot - Wind Direction
WDIR
 
5-day plot - Wind Speed
WSPD
kts
5-day plot - Wind Gust
GST
kts
5-day plot - Wave Height
WVHT
ft
5-day plot - Dominant Wave Period
DPD
sec
5-day plot - Average Wave Period
APD
sec
5-day plot - Mean Wave Direction
MWD
 
5-day plot - Atmospheric Pressure
PRES
in
5-day plot - Pressure Tendency
PTDY
in
5-day plot - Air Temperature
ATMP
°F
5-day plot - Water Temperature
WTMP
°F
5-day plot - Dew Point
DEWP
°F
5-day plot - Salinity
SAL
psu
5-day plot - Visibility
VIS
nmi
5-day plot - Tide (above MLLW)
TIDE
ft
2026-09-01 06:42 pm S 8.0 8.9----30.09- 82.9 86.7----
2026-09-01 06:36 pm S 7.0 8.9----30.09- 82.9 86.7----
2026-09-01 06:30 pm S 8.0 8.9----30.09- 83.1 86.7----
2026-09-01 06:24 pm S 8.0 8.9----30.09- 83.1 86.7----
2026-09-01 06:18 pm S 8.9 11.1----30.09-- 86.7----
2026-09-01 06:12 pm S 9.9 12.0----30.09-- 86.7----
2026-09-01 06:06 pm S 8.9 9.9----30.09-- 86.5----
2026-09-01 06:00 pm S 8.9 11.1----30.09-0.02 83.1 86.5----
2026-09-01 05:54 pm S 8.9 9.9----30.09- 83.1 86.2----
2026-09-01 05:48 pm S 8.9 9.9----30.09- 83.3 86.4----
2026-09-01 05:42 pm S 8.9 11.1----30.09- 83.5 86.2----
2026-09-01 05:36 pmSSE 8.9 11.1----30.09- 83.5 86.0----
2026-09-01 05:30 pm S 8.9 9.9----30.09- 83.1 86.0----
2026-09-01 05:24 pm S 8.0 9.9----30.09- 83.1 86.0----
2026-09-01 05:18 pm S 8.9 9.9----30.09-- 86.0----
2026-09-01 05:12 pm S 8.9 9.9----30.09-- 86.2----
2026-09-01 05:06 pm S 8.9 9.9----30.09-- 86.2----
2026-09-01 05:00 pmSSE 8.0 8.9----30.09-0.03 83.1 86.5----
2026-09-01 04:54 pmSSE 8.9 8.9----30.09- 83.3 86.7----
2026-09-01 04:48 pm S 8.9 9.9----30.09- 83.1 86.7----
2026-09-01 04:42 pm S 8.0 8.9----30.09- 83.3 86.4----
2026-09-01 04:36 pm S 8.0 8.9----30.09- 83.1 86.7----
2026-09-01 04:30 pmSSE 7.0 8.9----30.09- 83.3 86.5----
2026-09-01 04:24 pm S 8.0 8.9----30.09- 83.1 86.5----
2026-09-01 04:18 pm S 8.0 9.9----30.09-- 86.5----
2026-09-01 04:12 pm S 8.9 9.9----30.09-- 86.5----
2026-09-01 04:06 pmSSE 8.0 9.9----30.09-- 86.9----
2026-09-01 04:00 pmSSE 8.0 8.9----30.09-0.04 83.1 86.7----
2026-09-01 03:54 pmSSE 8.0 8.9----30.10- 82.9 86.5----
2026-09-01 03:48 pmSSE 8.0 8.9----30.10- 83.1 86.4----
2026-09-01 03:42 pm S 8.0 8.9----30.10- 82.9 86.4----
2026-09-01 03:36 pm S 8.0 8.9----30.10- 82.9 86.4----
2026-09-01 03:30 pmSSE 8.0 8.9----30.10- 83.1 86.4----
2026-09-01 03:24 pmSSE 8.0 8.9----30.10- 82.9 86.4----
2026-09-01 03:18 pmSSE 8.0 9.9----30.10-- 86.2----
2026-09-01 03:12 pm S 9.9 11.1----30.11-- 86.2----
2026-09-01 03:06 pmSSE 8.9 9.9----30.11-- 86.0----
2026-09-01 03:00 pmSSE 8.9 11.1----30.11-0.03 82.8 86.0----
2026-09-01 02:54 pmSSE 8.9 11.1----30.11- 82.8 86.0----
2026-09-01 02:48 pmSSE 8.9 9.9----30.11- 82.6 86.0----
2026-09-01 02:42 pmSSE 8.9 9.9----30.11- 82.8 85.8----
2026-09-01 02:36 pmSSE 8.9 9.9----30.12- 82.8 85.6----
2026-09-01 02:30 pmSSE 8.9 11.1----30.12- 82.8 85.6----
2026-09-01 02:24 pmSSE 9.9 9.9----30.12- 82.6 85.5----
2026-09-01 02:18 pmSSE 9.9 11.1----30.12-- 85.5----
2026-09-01 02:12 pmSSE 8.9 9.9----30.12-- 85.3----
2026-09-01 02:06 pmSSE 8.9 9.9----30.12-- 85.1----
2026-09-01 02:00 pmSSE 8.9 9.9----30.12-0.03 83.1 84.9----
2026-09-01 01:54 pmSSE 9.9 9.9----30.12- 83.1 84.7----
2026-09-01 01:48 pmSSE 8.9 11.1----30.12- 83.1 84.6----
2026-09-01 01:42 pm SE 8.0 8.9----30.12- 83.8 84.4----
2026-09-01 01:36 pm SE 8.0 8.9----30.12- 83.8 84.4----
2026-09-01 01:30 pm SE 8.0 8.9----30.12- 83.8 84.4----
2026-09-01 01:24 pm SE 8.0 8.9----30.12- 84.2 84.2----
2026-09-01 01:18 pm SE 8.0 8.9----30.13-- 84.2----
2026-09-01 01:12 pm SE 8.9 9.9----30.13-- 84.2----
2026-09-01 01:06 pm SE 8.0 8.9----30.13-- 84.2----
2026-09-01 01:00 pm SE 7.0 8.0----30.13-0.02 84.9 84.2----
2026-09-01 12:54 pmESE 7.0 7.0----30.13- 84.6 84.2----
2026-09-01 12:48 pm SE 6.0 7.0----30.13-- 84.2----
2026-09-01 12:42 pm SE 5.1 6.0----30.14-- 84.2----
2026-09-01 12:36 pm SE 6.0 6.0----30.14-- 84.2----
2026-09-01 12:30 pm SE 6.0 7.0----30.14- 85.1 84.0----
2026-09-01 12:24 pm SE 7.0 8.0----30.14- 84.7 84.0----
2026-09-01 12:18 pm SE 7.0 8.0----30.14-- 84.0----
2026-09-01 12:12 pm SE 6.0 6.0----30.14-- 84.0----
2026-09-01 12:06 pm SE 6.0 6.0----30.14-- 84.0----
2026-09-01 12:00 pm SE 5.1 6.0----30.14+0.00 84.6 84.0----
2026-09-01 11:54 am SE 5.1 6.0----30.14- 85.1 84.0----
2026-09-01 11:48 am SE 5.1 6.0----30.14- 84.2 84.0----
2026-09-01 11:42 am SE 6.0 7.0----30.14- 85.1 84.0----
2026-09-01 11:36 amESE 5.1 7.0----30.14- 84.4 84.0----
2026-09-01 11:30 amENE 5.1 8.0----30.14- 85.5 84.0----
2026-09-01 11:24 amENE 4.1 5.1----30.15- 85.5 84.0----
2026-09-01 11:18 amENE 2.9 4.1----30.15-- 84.0----
2026-09-01 11:12 amNNE 2.9 6.0----30.15-- 84.0----
2026-09-01 11:06 amNNE 5.1 6.0----30.15-- 84.0----
2026-09-01 11:00 amNNE 6.0 7.0----30.15+0.01 84.6 84.0----
2026-09-01 10:54 am N 5.1 7.0----30.15- 84.6 84.0----
2026-09-01 10:48 am NE 2.9 6.0----30.15-- 84.0----
2026-09-01 10:42 amNNE 5.1 6.0----30.15-- 84.0----
2026-09-01 10:36 am N 5.1 7.0----30.15-- 84.0----
2026-09-01 10:30 amNNE 7.0 8.0----30.15- 83.3 84.0----
2026-09-01 10:24 amNNE 4.1 6.0----30.15- 83.5 84.0----
2026-09-01 10:18 am NW 4.1 6.0----30.15-- 84.0----
2026-09-01 10:12 amNNW 5.1 6.0----30.15-- 83.8----
2026-09-01 10:06 amNNW 4.1 6.0----30.15-- 83.8----
2026-09-01 10:00 amNNW 5.1 7.0----30.15+0.03 82.2 83.8----
2026-09-01 09:54 am N 4.1 6.0----30.15- 81.7 83.8----
2026-09-01 09:48 am N 4.1 6.0----30.15- 81.1 83.8----
2026-09-01 09:42 amNNW 4.1 6.0----30.15- 81.0 83.8----
2026-09-01 09:36 amNNW 4.1 7.0----30.15- 80.6 83.8----
2026-09-01 09:30 amNNW 2.9 6.0----30.15- 80.2 83.8----
2026-09-01 09:24 amNNW 4.1 6.0----30.15- 79.9 83.8----
2026-09-01 09:18 amNNW 4.1 5.1----30.15-- 83.8----
2026-09-01 09:12 amNNW 4.1 6.0----30.15-- 83.8----
2026-09-01 09:06 amNNW 5.1 6.0----30.15-- 83.8----
2026-09-01 09:00 amNNW 5.1 6.0----30.15+0.04 77.4 83.8----
2026-09-01 08:54 amNNW 6.0 8.0----30.15- 76.8 83.8----
2026-09-01 08:48 amNNW 5.1 7.0----30.15-- 83.8----
2026-09-01 08:42 amNNW 6.0 7.0----30.15-- 83.8----
2026-09-01 08:36 am NW 5.1 7.0----30.15-- 83.8----
2026-09-01 08:30 amNNW 6.0 8.0----30.15- 76.6 83.8----
2026-09-01 08:24 amNNW 7.0 8.9----30.15- 76.1 83.8----
2026-09-01 08:18 amNNW 6.0 8.0----30.14-- 83.8----
2026-09-01 08:12 am NW 6.0 8.0----30.14-- 83.8----
2026-09-01 08:06 amNNW 6.0 7.0----30.14-- 83.8----
2026-09-01 08:00 amNNW 5.1 7.0----30.14+0.03 76.3 83.8----
2026-09-01 07:54 amNNW 5.1 6.0----30.14- 76.3 83.8----
2026-09-01 07:48 amNNW 5.1 7.0----30.13- 76.1 83.8----
2026-09-01 07:42 amNNW 6.0 7.0----30.13- 75.9 83.8----
2026-09-01 07:36 amNNW 5.1 6.0----30.13- 75.9 83.8----
2026-09-01 07:30 amNNW 5.1 7.0----30.13- 75.7 83.8----
2026-09-01 07:24 amNNW 6.0 8.0----30.12- 75.7 83.8----
2026-09-01 07:18 amNNW 6.0 7.0----30.12-- 83.8----
2026-09-01 07:12 amNNW 6.0 7.0----30.12-- 83.8----
2026-09-01 07:06 amNNW 6.0 7.0----30.12-- 83.8----
2026-09-01 07:00 amNNW 6.0 7.0----30.12+0.00 75.6 83.8----
2026-09-01 06:54 amNNW 5.1 7.0----30.12- 75.7 83.8----
2026-09-01 06:48 amNNW 6.0 7.0----30.11- 75.7 83.8----
2026-09-01 06:42 amNNW 5.1 6.0----30.11- 75.9 83.8----
2026-09-01 06:36 am NW 6.0 6.0----30.11- 75.9 83.8----
2026-09-01 06:30 am NW 5.1 6.0----30.11- 75.9 83.8----
2026-09-01 06:24 amNNW 5.1 6.0----30.11- 76.1 83.8----
2026-09-01 06:18 am NW 5.1 5.1----30.11-- 83.8----
2026-09-01 06:12 am NW 5.1 5.1----30.11-- 83.8----
2026-09-01 06:06 am NW 5.1 5.1----30.11-- 83.8----
2026-09-01 06:00 am NW 5.1 6.0----30.11- 76.1 83.8----
2026-09-01 05:54 am NW 6.0 6.0----30.11- 76.1 84.0----
2026-09-01 05:48 am NW 5.1 6.0----30.11- 76.3 84.0----
2026-09-01 05:42 am NW 5.1 6.0----30.11- 76.1 84.0----
2026-09-01 05:36 am NW 5.1 6.0----30.11- 76.1 84.0----
2026-09-01 05:30 am NW 5.1 6.0----30.10- 76.1 84.0----
2026-09-01 05:24 am NW 5.1 6.0----30.10- 76.1 84.0----
2026-09-01 05:18 am NW 5.1 6.0----30.10-- 84.0----
2026-09-01 05:12 am NW 4.1 6.0----30.10-- 84.0----
2026-09-01 05:06 amNNW 5.1 7.0----30.11-- 84.0----
2026-09-01 05:00 am NW 6.0 6.0----30.10-0.02 76.3 84.0----
2026-09-01 04:54 amNNW 5.1 5.1----30.10- 76.3 84.2----
2026-09-01 04:48 am NW 5.1 5.1----30.11-- 84.2----
2026-09-01 04:42 am NW 5.1 5.1----30.11-- 84.4----
2026-09-01 04:36 amNNW 5.1 6.0----30.11-- 84.4----
2026-09-01 04:30 amNNW 5.1 6.0----30.11- 76.3 84.4----
2026-09-01 04:24 am NW 5.1 6.0----30.11- 76.5 84.4----
2026-09-01 04:18 amNNW 5.1 7.0----30.11-- 84.4----
2026-09-01 04:12 amNNW 6.0 7.0----30.11-- 84.4----
2026-09-01 04:06 amNNW 5.1 7.0----30.11-- 84.4----
2026-09-01 04:00 amNNW 6.0 7.0----30.11-0.03 76.6 84.4----
2026-09-01 03:54 am NW 6.0 7.0----30.11- 76.8 84.4----
2026-09-01 03:48 am NW 5.1 6.0----30.11- 76.8 84.4----
2026-09-01 03:42 am NW 6.0 6.0----30.11- 76.8 84.4----
2026-09-01 03:36 am NW 5.1 6.0----30.11- 77.0 84.4----
2026-09-01 03:30 amNNW 5.1 7.0----30.11- 77.0 84.4----
2026-09-01 03:24 amNNW 6.0 7.0----30.11- 77.0 84.4----
2026-09-01 03:18 amNNW 6.0 7.0----30.11- 77.2 84.6----
2026-09-01 03:12 amNNW 6.0 7.0----30.11- 77.4 84.6----
2026-09-01 03:06 am NW 5.1 7.0----30.11- 77.5 84.6----
2026-09-01 03:00 am NW 6.0 7.0------ 77.5 84.6----
2026-09-01 02:54 am NW 5.1 5.1------ 77.9 84.6----
2026-09-01 02:48 am NW 5.1 5.1----30.12- 78.3 84.6----
2026-09-01 02:42 am NW 2.9 4.1----30.12- 78.8 84.6----
2026-09-01 02:36 amWNW 1.9 1.9----30.12- 79.3 84.6----
2026-09-01 02:30 amWSW 1.0 2.9----30.12-- 84.6----
2026-09-01 02:24 am SW 1.9 1.9----30.12-- 84.6----
2026-09-01 02:18 am SW 1.0 1.9----30.12-- 84.4----
2026-09-01 02:12 am- 0.0 1.0----30.12-- 84.4----
2026-09-01 02:06 am- 0.0 1.0----30.12-- 84.4----
2026-09-01 02:00 am- 0.0 1.9----30.12-0.01 79.7 84.4----
2026-09-01 01:54 amWNW 1.0 1.9----30.12- 80.1 84.6----
2026-09-01 01:48 am W 1.0 1.9----30.13- 80.1 84.6----
2026-09-01 01:42 amWNW 1.9 1.9----30.13- 80.4 84.6----
2026-09-01 01:36 am S 1.9 2.9----30.13- 81.5 84.6----
2026-09-01 01:30 amSSE 1.9 2.9----30.13- 81.3 84.6----
2026-09-01 01:24 amSSE 1.9 4.1----30.13- 81.3 84.6----
2026-09-01 01:18 am S 2.9 4.1----30.13-- 84.6----
2026-09-01 01:12 am S 2.9 5.1----30.14-- 84.6----
2026-09-01 01:06 amSSE 4.1 5.1----30.14-- 84.6----
2026-09-01 01:00 am S 5.1 5.1----30.14+0.00 81.5 84.6----
2026-09-01 12:54 am S 5.1 6.0----30.14- 81.7 84.6----
2026-09-01 12:48 am S 5.1 6.0----30.14- 81.7 84.6----
2026-09-01 12:42 am S 4.1 5.1----30.14- 81.7 84.6----
2026-09-01 12:36 am S 4.1 4.1----30.14- 81.7 84.6----
2026-09-01 12:30 am S 2.9 4.1----30.14- 81.7 84.6----
2026-09-01 12:24 am S 4.1 5.1----30.14- 81.7 84.6----
2026-09-01 12:18 am S 4.1 5.1----30.14-- 84.6----
2026-09-01 12:12 am S 5.1 5.1----30.14-- 84.6----
2026-09-01 12:06 am S 4.1 5.1----30.14-- 84.6----
2026-09-01 12:00 am S 2.9 4.1----30.14+0.01 81.7 84.6----
2026-08-31 11:54 pmSSE 4.1 5.1----30.14- 81.9 84.6----
2026-08-31 11:48 pm S 4.1 5.1----30.14-- 84.6----
2026-08-31 11:42 pmSSE 5.1 6.0----30.14-- 84.6----
2026-08-31 11:36 pmSSE 5.1 5.1----30.14-- 84.6----
2026-08-31 11:30 pmSSE 5.1 5.1----30.14- 81.7 84.6----
2026-08-31 11:24 pmSSE 5.1 5.1----30.14- 81.7 84.6----
2026-08-31 11:18 pmSSE 5.1 5.1------- 84.6----
2026-08-31 11:12 pmSSE 5.1 7.0------- 84.6----
2026-08-31 11:06 pmSSE 5.1 6.0------- 84.6----
2026-08-31 11:00 pm SE 5.1 5.1----30.14+0.01 81.5 84.6----
2026-08-31 10:54 pmSSE 4.1 6.0----30.14- 81.7 84.6----
2026-08-31 10:48 pm SE 5.1 5.1----30.14- 81.7 84.6----
2026-08-31 10:42 pm SE 5.1 6.0----30.14- 81.7 84.6----
2026-08-31 10:36 pmSSE 6.0 6.0----30.14- 81.9 84.6----
2026-08-31 10:30 pmSSE 5.1 6.0----30.14- 81.9 84.6----
2026-08-31 10:24 pmSSE 5.1 7.0----30.14- 81.9 84.6----
2026-08-31 10:18 pmSSE 6.0 7.0----30.14-- 84.6----
2026-08-31 10:12 pmSSE 6.0 7.0----30.14-- 84.6----
2026-08-31 10:06 pmSSE 6.0 7.0----30.14-- 84.6----
2026-08-31 10:00 pmSSE 5.1 7.0----30.13+0.01 82.0 84.6----
2026-08-31 09:54 pmSSE 5.1 8.0----30.13- 82.0 84.6----
2026-08-31 09:48 pmSSE 7.0 8.0----30.13- 82.0 84.6----
2026-08-31 09:42 pmSSE 6.0 8.0----30.13- 82.0 84.6----
2026-08-31 09:36 pmSSE 7.0 8.0----30.13- 82.0 84.6----
2026-08-31 09:30 pmSSE 7.0 7.0----30.13- 82.2 84.6----
2026-08-31 09:24 pmSSE 7.0 7.0----30.12- 82.0 84.6----
2026-08-31 09:18 pmSSE 6.0 7.0----30.12-- 84.6----
2026-08-31 09:12 pmSSE 6.0 7.0----30.12-- 84.6----
2026-08-31 09:06 pmSSE 7.0 8.0----30.13-- 84.6----
2026-08-31 09:00 pmSSE 6.0 7.0----30.13+0.01 82.0 84.6----
2026-08-31 08:54 pmSSE 6.0 8.0----30.13- 81.9 84.4----
2026-08-31 08:48 pmSSE 6.0 8.0----30.12-- 84.4----
2026-08-31 08:42 pm SE 7.0 8.0----30.12-- 84.6----
2026-08-31 08:36 pm SE 7.0 8.0----30.12-- 84.6----
2026-08-31 08:30 pmSSE 7.0 8.0----30.12- 81.9 84.4----
2026-08-31 08:24 pm SE 7.0 8.0----30.12- 81.9 84.6----
2026-08-31 08:18 pmSSE 8.0 8.9----30.12-- 84.6----
2026-08-31 08:12 pm SE 8.0 8.9----30.12-- 84.6----
2026-08-31 08:06 pm SE 7.0 8.0----30.12-- 84.6----
2026-08-31 08:00 pmSSE 7.0 8.0----30.12+0.00 82.0 84.6----
2026-08-31 07:54 pm SE 8.0 8.9----30.12- 82.0 84.6----
2026-08-31 07:48 pm SE 7.0 8.9----30.12-- 84.6----
2026-08-31 07:42 pm SE 8.0 8.9----30.12-- 84.6----
2026-08-31 07:36 pm SE 8.0 8.9----30.11-- 84.7----